Flint, MI

5:16 PM EDT on April 27, 2017 (GMT -0400)
Bishop International

Weather History for KFNT - August, 2012

Change the Weather History Date:

Friday, August 24, 2012

  Actual Average Record
Temperature  
Mean Temperature 73 °F 68 °F  
Max Temperature 87 °F 79 °F 101 °F (1947)
Min Temperature 59 °F 57 °F 40 °F (1951)
Degree Days  
Heating Degree Days 0 1  
Month to date heating degree days 11 23  
Since 1 June heating degree days 59 104  
Since 1 July heating degree days 11 38  
Cooling Degree Days 8 4  
Month to date cooling degree days 103 121  
Year to date cooling degree days 727 452  
Since 1 June cooling degree days 639 420  
Growing Degree Days 23 (Base 50)    
Moisture  
Dew Point 58 °F    
Average Humidity 64    
Maximum Humidity 93    
Minimum Humidity 34    
Precipitation  
Precipitation 0.00 in 0.09 in 2.64 in (1985)
Month to date precipitation 2.72 2.44  
Year to date precipitation 21.28 19.82  
Snow  
Snow 0.00 in 0.00 in 0.00 in ()
Month to date snowfall 0.0 0.0  
Since 1 June snowfall 0.0 0.0  
Since 1 July snowfall 0.0 0.0  
Snow Depth 0.00 in    
Sea Level Pressure  
Sea Level Pressure 30.09 in    
Wind  
Wind Speed 5 mph (South)    
Max Wind Speed 13 mph    
Max Gust Speed 16 mph    
Visibility 9 miles    
Events      
T = Trace of Precipitation, MM = Missing Value Source: NWS Daily Summary

Daily Weather History Graph

Daily Weather History Graph

Search for Another Location

Airport or City:

Trip Planner

Search our weather history database for the weather conditions in past years. The results will help you decide how hot, cold, wet, or windy it might be!

Date:

Astronomy

Aug. 24, 2012 Rise Set
Actual Time 6:51 AM EDT 8:22 PM EDT
Civil Twilight 6:21 AM EDT 8:51 PM EDT
Nautical Twilight 5:45 AM EDT 9:27 PM EDT
Astronomical Twilight 5:07 AM EDT 10:05 PM EDT
Moon 2:56 PM EDT (8/24) No Moon Set
Length of Visible Light 14h 30m
Length of Day
13h 31m
Waxing Crescent, 51% of the Moon is Illuminated
Aug 24
Waxing Crescent
Aug 31
Full
Sep 8
Last Quarter
Sep 15
New
Sep 22
First Quarter

Hourly Weather History & Observations

Time (EDT) Temp. Heat Index Dew Point Humidity Pressure Visibility Wind Dir Wind Speed Gust Speed Precip Events Conditions
12:53 AM 66.0 °F - 57.0 °F 73% 30.09 in 10.0 mi South 8.1 mph - N/A   Clear
1:53 AM 66.9 °F - 57.9 °F 73% 30.09 in 10.0 mi South 5.8 mph - N/A   Clear
2:53 AM 64.0 °F - 57.9 °F 80% 30.09 in 10.0 mi South 3.5 mph - N/A   Clear
3:53 AM 63.0 °F - 59.0 °F 87% 30.09 in 10.0 mi Calm Calm - N/A   Clear
4:53 AM 61.0 °F - 57.9 °F 90% 30.10 in 9.0 mi Calm Calm - N/A   Clear
5:53 AM 60.1 °F - 57.0 °F 90% 30.10 in 7.0 mi Calm Calm - N/A   Clear
6:53 AM 62.1 °F - 59.0 °F 90% 30.12 in 5.0 mi Calm Calm - N/A   Clear
7:53 AM 63.0 °F - 60.1 °F 90% 30.13 in 6.0 mi South 3.5 mph - N/A   Clear
8:53 AM 70.0 °F - 60.1 °F 71% 30.12 in 10.0 mi South 6.9 mph - N/A   Clear
9:53 AM 75.9 °F - 60.1 °F 58% 30.13 in 10.0 mi South 6.9 mph - N/A   Clear
10:53 AM 80.1 °F 81.1 °F 61.0 °F 52% 30.13 in 10.0 mi South 9.2 mph - N/A   Clear
11:53 AM 82.0 °F 82.1 °F 59.0 °F 45% 30.12 in 10.0 mi South 8.1 mph - N/A   Clear
12:53 PM 82.9 °F 82.6 °F 57.9 °F 42% 30.10 in 10.0 mi SSW 8.1 mph - N/A   Clear
1:53 PM 84.2 °F 83.5 °F 57.2 °F 40% 30.10 in 10.0 mi Calm Calm - N/A   Clear
2:53 PM 84.9 °F 83.9 °F 57.0 °F 38% 30.07 in 10.0 mi South 6.9 mph - N/A   Clear
3:53 PM 86.0 °F 84.7 °F 55.9 °F 36% 30.06 in 10.0 mi SSW 8.1 mph - N/A   Clear
4:53 PM 87.1 °F 85.3 °F 55.0 °F 33% 30.05 in 10.0 mi South 5.8 mph - N/A   Clear
5:53 PM 86.0 °F 84.7 °F 55.9 °F 36% 30.05 in 10.0 mi South 3.5 mph - N/A   Clear
6:53 PM 84.9 °F 84.4 °F 59.0 °F 41% 30.04 in 10.0 mi Calm Calm - N/A   Clear
7:53 PM 82.0 °F 82.0 °F 57.9 °F 44% 30.05 in 10.0 mi Calm Calm - N/A   Clear
8:53 PM 75.9 °F - 60.1 °F 58% 30.06 in 10.0 mi SE 4.6 mph - N/A   Clear
9:53 PM 73.9 °F - 61.0 °F 64% 30.07 in 10.0 mi SSE 6.9 mph - N/A   Clear
10:53 PM 73.9 °F - 60.1 °F 62% 30.07 in 9.0 mi South 8.1 mph - N/A   Clear
11:53 PM 71.1 °F - 60.1 °F 68% 30.08 in 9.0 mi South 6.9 mph - N/A   Clear